HAWK-6C

Last updated on Fri Dec 29 2023 00:03:29 GMT+0000 (Coordinated Universal Time)

1 55326U 23011C 23361.87635895 .00004618 00000+0 29537-3 0 9991 2 55326 40.4847 159.8412 0005017 17.1449 342.9524 15.09219447 50858
UTC large
Height (km)
Speed (km/s)
/
Latitude / Longitude
Inclination (degrees)
Orbital Period (minutes)
Azimuth
Elevation
Range (km)
Doppler Factor

Next 0 passes for location: London (51.5072 / 0.1276)

Sorry there are no passes over London.